User: anonymous   Login
Location: Unspecified
(0.0000°N, 0.0000°E)
Time: 08:51:34
(UTC+00:00)
Language:

TBA - TO BE ASSIGNED - Orbit

View from above orbital plane
View from above orbital plane
View from above satellite
View from above satellite

Ground track
Ground track

The orbit is defined by the following mean orbital elements,

1 68182U          26145.32951080 +.00000000 +00000-0 +55732-3 0 00009
2 68182  53.1609 270.3008 0000952 136.5867 223.5210 15.34408414    02
Epoch (UTC): 25 May 2026 07:54:29
Eccentricity: 0.0000952
inclination: 53.1609°
perigee height: 462 km
apogee height: 463 km
right ascension of ascending node: 270.3008°
argument of perigee: 136.5867°
revolutions per day: 15.34408414
mean anomaly at epoch: 223.5210°

The dashed part of the orbit path shows where the satellite is in the earth's shadow,  

DLR